Flag for Mexico Weather past 2 weeks in Merida, Yucatán, Mexico

Now
77 °F

Mostly cloudy.


Feels Like: 78 °F
Forecast: 75 / 88 °F
Wind: 2 mph from Southeast

Location: Aerop. Internacional Merida - Yuc

Current Time: Sep 2, 2014 at 2:15:59 AM

Latest Report: Sep 2, 2014 at 1:41 AM


Visibility: 6 mi

Pressure: 29.96 "Hg

Humidity: 100%

Dew point: 77 °F

Location of MeridaLocation

Historic Weather in Merida — Graph

°F

Merida temperature yesterday

Maximum temperature yesterday: 81 °F (at 8:42 PM)
Minimum temperature yesterday: 73 °F (at 4:52 AM)
Average temperature yesterday: 75 °F

Past Weeks' High & Low Weather Summary

 TemperatureHumidityPressure
High95 °F (Aug 19, 4:42 PM)100% (Aug 18, 3:49 AM)30.39 "Hg (Aug 18, 3:49 AM)
Low72 °F (Aug 23, 3:47 AM)34% (Aug 27, 1:41 PM)29.78 "Hg (Aug 28, 4:24 PM)
Average81 °F79%29.92 "Hg
* Reported Aug 18 12:45 AM — Sep 2 12:45 AM, Merida, Weather by CustomWeather, © 2014

Note: Actual official high and low records may vary slightly from our data, if they occured in-between our weather recording intervals... More about our weather records

Advertising

Merida weather history for previous 24 hours

 ConditionsComfort  
Time TempWeatherWind HumidityBarometerVisibility
12:45 AM
Sep 2
79 °FOvercast.5 mph100%29.96 "Hg6 mi
11:41 PM
Sep 1
79 °FOvercast.7 mph100%29.98 "Hg6 mi
8:42 PM81 °FPartly cloudy.9 mph84%29.93 "Hg6 mi
2:45 PM77 °FMostly cloudy.9 mph100%29.92 "Hg5 mi
1:47 PM75 °FMore clouds than sun.7 mph100%29.96 "Hg5 mi
12:47 PM73 °FLight rain. Overcast.6 mph100%29.97 "Hg4 mi
12:30 PM73 °FSleet. Overcast.9 mph100%29.99 "Hg3 mi
11:47 AM73 °FRain. More clouds than sun.12 mph100%29.99 "Hg1 mi
10:44 AM75 °FLight rain. More clouds than sun.20 mph100%29.99 "Hg3 mi
9:46 AM75 °FLow clouds.12 mph100%29.96 "Hg5 mi
8:45 AM75 °FLow clouds.9 mph100%29.95 "Hg5 mi
7:46 AM73 °FMore clouds than sun.10 mph100%29.95 "Hg4 mi
7:31 AM73 °FLight rain. Mostly cloudy.12 mph100%29.95 "Hg4 mi
7:05 AM73 °FRain. Mostly cloudy.15 mph100%29.95 "Hg1 mi
6:53 AM73 °FMostly cloudy.14 mph100%29.94 "Hg4 mi
5:51 AM73 °FPassing clouds.12 mph100%29.93 "Hg6 mi
4:52 AM73 °FPassing clouds.10 mph100%29.90 "Hg6 mi
3:53 AM75 °FPassing clouds.9 mph100%29.94 "Hg6 mi
2:54 AM75 °FPassing clouds.8 mph100%29.91 "Hg6 mi
Weather by CustomWeather, © 2014

See weather overviewHow to use our weather pages